{"data":{"norad_id":63901,"epoch":"2026-09-20T23:20:31.468416Z","epoch_age_seconds":106230,"freshness":"FRESH","line1":"1 63901U 25095M   26263.97258644  .00017516  00000+0  64427-3 0  9999","line2":"2 63901  42.9993 153.3738 0001445 271.7483  88.3203 15.27593377 77640","mean_motion":15.27593377,"eccentricity":0.0001445,"inclination_deg":42.9993,"raan_deg":153.3738,"arg_perigee_deg":271.7483,"mean_anomaly_deg":88.3203,"bstar":0.00064427,"rev_number":7764,"period_min":94.265923228076,"perigee_km":482.01760517871,"apogee_km":484.0004763845,"semimajor_km":6861.1460407816,"source":"CELESTRAK","updated_at":"2026-09-21T09:00:35.145170Z"}}